Location: Poughquag
(41.6090°N, 73.6820°W)
Time: 05:10:44
(UTC-04:00)

STARLINK-1364 - Pass Details

Date: 29 May 2020
Orbit: 549 x 550 km, 53.0° (Epoch: 26 September)

Event Time Altitude Azimuth Distance (km) Brightness Sun altitude
Rises 04:46:47 0° 310° (NW) 2,719 7.0 -6.6°
Reaches altitude 10° 04:49:20 10° 323° (NW) 1,823 6.3 -6.3°
Maximum altitude 04:52:48 25° 20° (NNE) 1,130 6.0 -5.7°
Drops below altitude 10° 04:56:14 10° 77° (ENE) 1,813 7.6 -5.2°
Sets 04:58:46 0° 91° (E) 2,699 8.2 -4.8°
